Time,TemperatureF,DewpointF,PressureIn,WindDirection,WindDirectionDegrees,WindSpeedMPH,WindSpeedGustMPH,Humidity,HourlyPrecipIn,Conditions,Clouds,dailyrainin,SoftwareType,DateUTC
2013-09-07 01:42:00,55.0,-99.9,29.81,West,270,7.0,18.0,0,-99.99,,,0.00,,2013-09-07 05:42:00,
2013-09-07 01:52:00,55.0,-99.9,29.81,West,270,7.0,18.0,0,-99.99,,,0.00,,2013-09-07 05:52:00,
2013-09-07 02:02:00,55.0,-99.9,29.81,West,270,7.0,18.0,0,-99.99,,,0.00,,2013-09-07 06:02:00,
2013-09-07 02:43:00,55.0,-99.9,29.79,West,270,4.0,14.0,0,-99.99,,,0.00,,2013-09-07 06:43:00,
2013-09-07 02:52:00,55.0,-99.9,29.79,West,270,4.0,14.0,0,-99.99,,,0.00,,2013-09-07 06:52:00,
2013-09-07 03:02:00,55.0,-99.9,29.79,West,270,4.0,14.0,0,-99.99,,,0.00,,2013-09-07 07:02:00,
2013-09-07 03:03:00,54.0,-99.9,29.78,WNW,292,11.0,16.0,0,-99.99,,,0.00,,2013-09-07 07:03:00,
2013-09-07 03:43:00,54.0,-99.9,29.78,WNW,292,11.0,16.0,0,-99.99,,,0.00,,2013-09-07 07:43:00,
2013-09-07 03:52:00,54.0,-99.9,29.78,WNW,292,11.0,16.0,0,-99.99,,,0.00,,2013-09-07 07:52:00,
2013-09-07 04:43:00,54.0,-99.9,29.78,West,270,10.0,14.0,0,-99.99,,,0.00,,2013-09-07 08:43:00,
2013-09-07 04:53:00,54.0,-99.9,29.78,West,270,10.0,14.0,0,-99.99,,,0.00,,2013-09-07 08:53:00,
2013-09-07 05:02:00,54.0,-99.9,29.78,West,270,10.0,14.0,0,-99.99,,,0.00,,2013-09-07 09:02:00,
2013-09-07 05:52:00,55.0,-99.9,29.77,WSW,247,6.0,13.0,0,-99.99,,,0.00,,2013-09-07 09:52:00,
2013-09-07 06:02:00,55.0,-99.9,29.77,WSW,247,6.0,13.0,0,-99.99,,,0.00,,2013-09-07 10:02:00,
2013-09-07 06:03:00,56.0,-99.9,29.77,WSW,247,9.0,17.0,0,-99.99,,,-99.99,,2013-09-07 10:03:00,
2013-09-07 06:41:00,56.0,-99.9,29.77,WSW,247,9.0,17.0,0,-99.99,,,-99.99,,2013-09-07 10:41:00,
2013-09-07 06:52:00,56.0,-99.9,29.77,WSW,247,9.0,17.0,0,-99.99,,,-99.99,,2013-09-07 10:52:00,
2013-09-07 07:43:00,55.0,-99.9,29.76,WSW,247,8.0,14.0,0,-99.99,,,0.00,,2013-09-07 11:43:00,
2013-09-07 07:53:00,55.0,-99.9,29.76,WSW,247,8.0,14.0,0,-99.99,,,0.00,,2013-09-07 11:53:00,
2013-09-07 08:02:00,55.0,-99.9,29.76,WSW,247,8.0,14.0,0,-99.99,,,0.00,,2013-09-07 12:02:00,
2013-09-07 08:42:00,56.0,-99.9,29.75,West,270,12.0,18.0,0,-99.99,,,0.00,,2013-09-07 12:42:00,
2013-09-07 08:52:00,56.0,-99.9,29.75,West,270,12.0,18.0,0,-99.99,,,0.00,,2013-09-07 12:52:00,
2013-09-07 09:02:00,56.0,-99.9,29.75,West,270,12.0,18.0,0,-99.99,,,0.00,,2013-09-07 13:02:00,
2013-09-07 09:42:00,58.0,-99.9,29.73,WSW,247,9.0,15.0,0,-99.99,,,0.00,,2013-09-07 13:42:00,
2013-09-07 09:52:00,58.0,-99.9,29.73,WSW,247,9.0,15.0,0,-99.99,,,0.00,,2013-09-07 13:52:00,
2013-09-07 10:02:00,58.0,-99.9,29.73,WSW,247,9.0,15.0,0,-99.99,,,0.00,,2013-09-07 14:02:00,
2013-09-07 10:43:00,59.0,-99.9,29.72,NNW,337,2.0,20.0,0,-99.99,,,0.00,,2013-09-07 14:43:00,
2013-09-07 10:52:00,59.0,-99.9,29.72,NNW,337,2.0,20.0,0,-99.99,,,0.00,,2013-09-07 14:52:00,
2013-09-07 11:02:00,59.0,-99.9,29.72,NNW,337,2.0,20.0,0,-99.99,,,0.00,,2013-09-07 15:02:00,
2013-09-07 11:03:00,61.0,-99.9,29.71,NNW,337,7.0,24.0,0,-99.99,,,0.00,,2013-09-07 15:03:00,
2013-09-07 11:44:00,61.0,-99.9,29.71,NNW,337,7.0,24.0,0,-99.99,,,0.00,,2013-09-07 15:44:00,
2013-09-07 11:54:00,61.0,-99.9,29.71,NNW,337,7.0,24.0,0,-99.99,,,0.00,,2013-09-07 15:54:00,
2013-09-07 12:03:00,63.0,-99.9,29.69,WNW,292,19.0,27.0,0,-99.99,,,0.00,,2013-09-07 16:03:00,
2013-09-07 12:43:00,63.0,-99.9,29.69,WNW,292,19.0,27.0,0,-99.99,,,0.00,,2013-09-07 16:43:00,
2013-09-07 12:53:00,63.0,-99.9,29.69,WNW,292,19.0,27.0,0,-99.99,,,0.00,,2013-09-07 16:53:00,
2013-09-07 13:43:00,63.0,-99.9,29.67,West,270,12.0,25.0,0,-99.99,,,0.00,,2013-09-07 17:43:00,
2013-09-07 13:52:00,63.0,-99.9,29.67,West,270,12.0,25.0,0,-99.99,,,0.00,,2013-09-07 17:52:00,
2013-09-07 14:01:00,63.0,-99.9,29.67,West,270,12.0,25.0,0,-99.99,,,0.00,,2013-09-07 18:01:00,
2013-09-07 14:43:00,64.0,-99.9,29.67,West,270,11.0,24.0,0,-99.99,,,0.00,,2013-09-07 18:43:00,
2013-09-07 14:52:00,64.0,-99.9,29.67,West,270,11.0,24.0,0,-99.99,,,0.00,,2013-09-07 18:52:00,
2013-09-07 15:02:00,64.0,-99.9,29.67,West,270,11.0,24.0,0,-99.99,,,0.00,,2013-09-07 19:02:00,
2013-09-07 15:42:00,64.0,-99.9,29.67,NW,315,11.0,18.0,0,-99.99,,,0.00,,2013-09-07 19:42:00,
2013-09-07 15:53:00,64.0,-99.9,29.67,NW,315,11.0,18.0,0,-99.99,,,0.00,,2013-09-07 19:53:00,
2013-09-07 16:02:00,64.0,-99.9,29.67,NW,315,11.0,18.0,0,-99.99,,,0.00,,2013-09-07 20:02:00,
2013-09-07 16:42:00,64.0,-99.9,29.66,West,270,13.0,18.0,0,-99.99,,,0.00,,2013-09-07 20:42:00,
2013-09-07 16:53:00,64.0,-99.9,29.66,West,270,13.0,18.0,0,-99.99,,,0.00,,2013-09-07 20:53:00,
2013-09-07 17:02:00,64.0,-99.9,29.66,West,270,13.0,18.0,0,-99.99,,,0.00,,2013-09-07 21:02:00,
2013-09-07 17:03:00,63.0,-99.9,29.66,NNW,337,4.0,18.0,0,-99.99,,,0.00,,2013-09-07 21:03:00,
2013-09-07 17:44:00,63.0,-99.9,29.66,NNW,337,4.0,18.0,0,-99.99,,,0.00,,2013-09-07 21:44:00,
2013-09-07 17:54:00,63.0,-99.9,29.66,NNW,337,4.0,18.0,0,-99.99,,,0.00,,2013-09-07 21:54:00,
2013-09-07 18:03:00,62.0,-99.9,29.66,NW,315,5.0,14.0,0,-99.99,,,0.00,,2013-09-07 22:03:00,
2013-09-07 18:43:00,62.0,-99.9,29.66,NW,315,5.0,14.0,0,-99.99,,,0.00,,2013-09-07 22:43:00,
2013-09-07 18:53:00,62.0,-99.9,29.66,NW,315,5.0,14.0,0,-99.99,,,0.00,,2013-09-07 22:53:00,
2013-09-07 19:42:00,59.0,-99.9,29.66,NNW,337,7.0,16.0,0,-99.99,,,0.00,,2013-09-07 23:42:00,
2013-09-07 19:53:00,59.0,-99.9,29.66,NNW,337,7.0,16.0,0,-99.99,,,0.00,,2013-09-07 23:53:00,
2013-09-07 20:02:00,59.0,-99.9,29.66,NNW,337,7.0,16.0,0,-99.99,,,0.00,,2013-09-08 00:02:00,
2013-09-07 20:43:00,58.0,-99.9,29.66,West,270,4.0,10.0,0,-99.99,,,0.00,,2013-09-08 00:43:00,
2013-09-07 20:52:00,58.0,-99.9,29.66,West,270,4.0,10.0,0,-99.99,,,0.00,,2013-09-08 00:52:00,
2013-09-07 21:01:00,58.0,-99.9,29.66,West,270,4.0,10.0,0,-99.99,,,0.00,,2013-09-08 01:01:00,
2013-09-07 23:03:00,-999.0,-99.9,29.62,WSW,247,3.0,6.0,-999,-99.99,,,-99.99,,2013-09-08 03:03:00,